Waukesha, WI

10:02 PM CDT on June 25, 2017 (GMT -0500)
Waukesha County

Weather History for KUES - January, 2012

Change the Weather History Date:

Wednesday, January 11, 2012

  Actual Average Record
Temperature  
Mean Temperature 40 °F -  
Max Temperature 51 °F 23 °F 51 °F (2012)
Min Temperature 28 °F 7 °F -16 °F (1979)
Degree Days  
Heating Degree Days 26    
Moisture  
Dew Point 27 °F    
Average Humidity 76    
Maximum Humidity 93    
Minimum Humidity 35    
Precipitation  
Precipitation 0.00 in - - ()
Sea Level Pressure  
Sea Level Pressure 29.63 in    
Wind  
Wind Speed 4 mph (SW)    
Max Wind Speed 10 mph    
Max Gust Speed 16 mph    
Visibility 10 miles    
Events      
Averages and records for this station are not official NWS values.
T = Trace of Precipitation, MM = Missing Value Source: NWS Daily Summary

Daily Weather History Graph

Daily Weather History Graph

Search for Another Location

Airport or City:

Trip Planner

Search our weather history database for the weather conditions in past years. The results will help you decide how hot, cold, wet, or windy it might be!

Date:

Astronomy

Jan. 11, 2012 Rise Set
Actual Time 7:23 AM CST 4:38 PM CST
Civil Twilight 6:51 AM CST 5:10 PM CST
Nautical Twilight 6:16 AM CST 5:45 PM CST
Astronomical Twilight 5:42 AM CST 6:19 PM CST
Moon 7:42 PM CST (1/11) 8:30 AM CST (1/11)
Length of Visible Light 10h 18m
Length of Day
9h 15m
Waning Gibbous, 93% of the Moon is Illuminated
Jan 11
Waning Gibbous
Jan 16
Last Quarter
Jan 23
New
Jan 30
First Quarter
Feb 7
Full

Hourly Weather History & Observations

Time (CST) Temp. Windchill Dew Point Humidity Pressure Visibility Wind Dir Wind Speed Gust Speed Precip Events Conditions
12:15 AM 32.0 °F 27.5 °F 28.4 °F 87% 29.75 in 10.0 mi SSW 4.6 mph - N/A   Clear
12:35 AM 32.0 °F 27.5 °F 28.4 °F 87% 29.75 in 10.0 mi SSW 4.6 mph - N/A   Clear
12:55 AM 32.0 °F 28.7 °F 28.4 °F 87% 29.74 in 10.0 mi SSW 3.5 mph - N/A   Clear
1:15 AM 32.0 °F 28.7 °F 28.4 °F 87% 29.74 in 10.0 mi SSW 3.5 mph - N/A   Clear
1:35 AM 32.0 °F 28.7 °F 28.4 °F 87% 29.74 in 10.0 mi SW 3.5 mph - N/A   Clear
1:55 AM 32.0 °F 27.5 °F 28.4 °F 87% 29.75 in 10.0 mi SSW 4.6 mph - N/A   Clear
2:15 AM 32.0 °F 26.4 °F 28.4 °F 87% 29.74 in 10.0 mi SSW 5.8 mph - N/A   Clear
2:35 AM 32.0 °F 25.6 °F 26.6 °F 80% 29.73 in 10.0 mi SSW 6.9 mph - N/A   Clear
2:55 AM 32.0 °F 25.6 °F 26.6 °F 80% 29.73 in 10.0 mi SSW 6.9 mph - N/A   Clear
3:15 AM 32.0 °F 26.4 °F 26.6 °F 80% 29.71 in 10.0 mi SW 5.8 mph - N/A   Clear
3:35 AM 32.0 °F 26.4 °F 26.6 °F 80% 29.70 in 10.0 mi SSW 5.8 mph - N/A   Clear
3:55 AM 32.0 °F 25.6 °F 26.6 °F 80% 29.69 in 10.0 mi SSW 6.9 mph - N/A   Clear
4:15 AM 32.0 °F 27.5 °F 26.6 °F 80% 29.68 in 10.0 mi South 4.6 mph - N/A   Clear
4:35 AM 32.0 °F 27.5 °F 26.6 °F 80% 29.68 in 10.0 mi SSW 4.6 mph - N/A   Clear
5:45 AM 28.4 °F 24.6 °F 24.8 °F 86% 29.68 in 10.0 mi SSW 3.5 mph - N/A   Clear
6:45 AM 30.2 °F - 24.8 °F 80% 29.67 in 10.0 mi Calm Calm - N/A   Clear
7:45 AM 28.4 °F - 24.8 °F 86% 29.67 in 10.0 mi Calm Calm - N/A   Clear
8:45 AM 30.2 °F - 26.6 °F 86% 29.67 in 10.0 mi Calm Calm - N/A   Clear
9:45 AM 37.4 °F - 26.6 °F 65% 29.66 in 10.0 mi Calm Calm - N/A   Clear
10:45 AM 42.8 °F 41.1 °F 28.4 °F 57% 29.65 in 10.0 mi South 3.5 mph - N/A   Clear
11:45 AM 46.4 °F - 28.4 °F 50% 29.62 in 10.0 mi Calm Calm - N/A   Clear
12:45 PM 50.0 °F - 24.8 °F 37% 29.58 in 10.0 mi South 5.8 mph - N/A   Clear
1:45 PM 51.8 °F - 24.8 °F 35% 29.56 in 10.0 mi SW 5.8 mph - N/A   Clear
2:45 PM 51.8 °F - 24.8 °F 35% 29.56 in 10.0 mi WNW 6.9 mph - N/A   Clear
3:45 PM 50.0 °F - 24.8 °F 37% 29.55 in 10.0 mi Calm Calm - N/A   Clear
4:45 PM 44.6 °F - 24.8 °F 46% 29.55 in 10.0 mi Calm Calm - N/A   Clear
5:45 PM 35.6 °F 32.8 °F 24.8 °F 65% 29.55 in 10.0 mi ENE 3.5 mph - N/A   Clear
6:45 PM 33.8 °F - 24.8 °F 70% 29.55 in 10.0 mi Calm Calm - N/A   Clear
8:15 PM 32.0 °F - 26.6 °F 80% 29.55 in 10.0 mi Calm Calm - N/A   Clear
8:45 PM 30.2 °F - 24.8 °F 80% 29.54 in 10.0 mi Calm Calm - N/A   Clear
8:55 PM 32.0 °F - 26.6 °F 80% 29.54 in 10.0 mi Calm Calm - N/A   Clear
9:15 PM 28.4 °F - 24.8 °F 86% 29.53 in 10.0 mi Calm Calm - N/A   Clear
9:35 PM 30.2 °F 25.4 °F 24.8 °F 80% 29.53 in 10.0 mi West 4.6 mph - N/A   Clear
10:15 PM 32.0 °F 24.2 °F 26.6 °F 80% 29.53 in 10.0 mi WNW 9.2 mph - N/A   Clear
10:35 PM 32.0 °F 23.6 °F 28.4 °F 87% 29.53 in 10.0 mi WNW 10.4 mph - N/A   Clear
10:55 PM 32.0 °F 24.8 °F 30.2 °F 93% 29.53 in 10.0 mi WNW 8.1 mph - N/A   Clear
11:15 PM 32.0 °F 23.6 °F 30.2 °F 93% 29.53 in 10.0 mi WNW 10.4 mph - N/A   Clear
11:35 PM 32.0 °F 23.6 °F 30.2 °F 93% 29.52 in 10.0 mi WNW 10.4 mph - N/A   Clear
11:55 PM 32.0 °F 23.6 °F 30.2 °F 93% 29.52 in 10.0 mi WNW 10.4 mph 16.1 mph N/A   Clear